St. Joseph, KS

2:24 AM CST on February 24, 2018 (GMT -0600)
Rosecrans Memorial

Weather History for KSTJ - June, 2012

Change the Weather History Date:

Saturday, June 2, 2012

  Actual Average Record
Temperature  
Mean Temperature 66 °F 70 °F  
Max Temperature 85 °F 81 °F 98 °F (1934)
Min Temperature 47 °F 60 °F 45 °F (1967)
Degree Days  
Heating Degree Days 0 1  
Month to date heating degree days 8 2  
Since 1 June heating degree days 8 2  
Since 1 July heating degree days 4254 5452  
Cooling Degree Days 1 6  
Month to date cooling degree days 1 12  
Year to date cooling degree days 268 125  
Since 1 June cooling degree days 1 12  
Growing Degree Days 16 (Base 50)    
Moisture  
Dew Point 48 °F    
Average Humidity 54    
Maximum Humidity 86    
Minimum Humidity 22    
Precipitation  
Precipitation 0.00 in 0.15 in 2.30 in (1949)
Month to date precipitation 0.00 0.32  
Year to date precipitation 10.58 13.27  
Sea Level Pressure  
Sea Level Pressure 29.86 in    
Wind  
Wind Speed 6 mph (West)    
Max Wind Speed 21 mph    
Max Gust Speed 25 mph    
Visibility 10 miles    
Events      
T = Trace of Precipitation, MM = Missing Value Source: NWS Daily Summary

Daily Weather History Graph

Daily Weather History Graph

Search for Another Location

Airport or City:

Trip Planner

Search our weather history database for the weather conditions in past years. The results will help you decide how hot, cold, wet, or windy it might be!

Date:

Astronomy

Jun. 02, 2012 Rise Set
Actual Time 5:52 AM CDT 8:42 PM CDT
Civil Twilight 5:20 AM CDT 9:14 PM CDT
Nautical Twilight 4:40 AM CDT 9:55 PM CDT
Astronomical Twilight 3:54 AM CDT 10:41 PM CDT
Moon 6:59 PM CDT (6/2) 4:11 AM CDT (6/2)
Length of Visible Light 15h 54m
Length of Day
14h 49m
Waxing Gibbous, 95% of the Moon is Illuminated
Jun 2
Waxing Gibbous
Jun 4
Full
Jun 11
Last Quarter
Jun 19
New
Jun 26
First Quarter

Hourly Weather History & Observations

Time (CDT) Temp. Dew Point Humidity Pressure Visibility Wind Dir Wind Speed Gust Speed Precip Events Conditions
12:53 AM 55.0 °F 45.0 °F 69% 29.92 in 10.0 mi SW 4.6 mph - N/A   Clear
1:53 AM 52.0 °F 46.0 °F 80% 29.91 in 10.0 mi SSW 4.6 mph - N/A   Clear
2:53 AM 52.0 °F 46.0 °F 80% 29.90 in 10.0 mi SSW 3.5 mph - N/A   Clear
3:53 AM 52.0 °F 46.9 °F 83% 29.89 in 10.0 mi SSW 4.6 mph - N/A   Clear
4:53 AM 48.9 °F 45.0 °F 86% 29.88 in 10.0 mi Calm Calm - N/A   Clear
5:53 AM 50.0 °F 46.0 °F 86% 29.89 in 10.0 mi South 3.5 mph - N/A   Clear
6:53 AM 53.1 °F 48.9 °F 86% 29.90 in 10.0 mi SSW 5.8 mph - N/A   Clear
7:53 AM 55.9 °F 48.9 °F 77% 29.91 in 10.0 mi SW 5.8 mph - N/A   Clear
8:53 AM 62.1 °F 51.1 °F 67% 29.91 in 10.0 mi West 3.5 mph - N/A   Clear
9:53 AM 66.9 °F 52.0 °F 59% 29.90 in 10.0 mi West 5.8 mph - N/A   Clear
10:53 AM 72.0 °F 52.0 °F 49% 29.89 in 10.0 mi Variable 4.6 mph - N/A   Clear
11:53 AM 73.9 °F 51.1 °F 45% 29.88 in 10.0 mi West 6.9 mph - N/A   Clear
12:53 PM 78.1 °F 50.0 °F 37% 29.87 in 10.0 mi Variable 3.5 mph - N/A   Clear
1:53 PM 82.0 °F 44.1 °F 26% 29.85 in 10.0 mi WNW 16.1 mph 25.3 mph N/A   Clear
2:53 PM 82.0 °F 46.0 °F 28% 29.83 in 10.0 mi NW 12.7 mph 20.7 mph N/A   Clear
3:53 PM 84.9 °F 44.1 °F 24% 29.82 in 10.0 mi WNW 12.7 mph - N/A   Partly Cloudy
4:53 PM 84.9 °F 41.0 °F 21% 29.81 in 8.0 mi NW 12.7 mph 20.7 mph N/A   Clear
5:53 PM 84.0 °F 43.0 °F 24% 29.81 in 10.0 mi NNW 11.5 mph - N/A   Clear
6:53 PM 84.0 °F 43.0 °F 24% 29.80 in 10.0 mi NNW 10.4 mph - N/A   Clear
7:53 PM 81.0 °F 44.1 °F 27% 29.81 in 10.0 mi North 5.8 mph - N/A   Clear
8:53 PM 70.0 °F 50.0 °F 49% 29.82 in 10.0 mi Calm Calm - N/A   Clear
9:53 PM 66.0 °F 51.1 °F 59% 29.82 in 10.0 mi Calm Calm - N/A   Clear
10:53 PM 62.1 °F 54.0 °F 75% 29.86 in 10.0 mi Calm Calm - N/A   Clear
11:53 PM 59.0 °F 54.0 °F 83% 29.87 in 10.0 mi Calm Calm - N/A   Clear